[[{"header":{"parameterUnit":"m.s-1","parameterCategory":1,"la1":30.2991,"la2":30.254,"lo1":-89.0895,"lo2":-89.0444,"dy":0.0017,"dx":0.0017,"nx":28,"ny":28,"refTime":"2023-06-18T21:00:00:Z","depth":0,"parameterNumber":2,"parameterNumberName":"U-component_of_WINDS"},"data":[0,0,0,0,0,0,0,0,0,0,0,0,0,0,0,0,0,0,0,0,0,0,0,0,0,0,0,0,0,0,0,0,0,0,0,0,0,0,0,0,0,0,0,0,0,0,0,0,0,0,0,0,0,0,0,0,0,0,5.6621,5.6622,0,5.6735,5.6736,5.6738,5.6653,5.6649,5.6645,5.6642,5.676,5.6766,5.6772,0,0,0,0,0,0,0,0,0,0,0,0,0,5.633,5.6336,5.6621,5.6622,5.6624,5.6735,5.6737,5.6738,5.6653,5.6649,5.6644,5.664,5.6757,5.6765,5.6773,0,0,0,0,0,0,0,0,0,0,0,0,0,5.6452,5.6338,5.662,5.6595,5.6594,5.6735,5.6737,5.6739,5.6654,5.6649,5.6643,5.6638,5.6755,5.6764,5.6774,5.6947,0,0,5.6804,5.6809,0,0,0,0,0,0,0,0,5.6445,5.6462,5.6597,5.6597,5.6596,5.6674,5.6677,5.6808,5.6656,5.6631,5.6642,5.6635,5.6736,5.6747,5.678,5.6952,5.6957,5.6805,5.6811,5.6816,5.6818,0,0,0,0,0,0,0,5.6436,5.6457,5.6666,5.6599,5.6598,5.6578,5.6589,5.6702,5.6713,5.6633,5.6627,5.6642,5.6734,5.6771,5.6783,5.6959,5.6805,5.6814,5.682,5.6824,5.7279,5.7285,0,0,0,0,0,0,5.643,5.645,5.6662,5.6669,5.6505,5.6588,5.66,5.6655,5.6712,5.6715,5.6646,5.6637,5.6757,5.6771,5.6786,5.6992,5.6815,5.6825,5.683,5.7273,5.728,5.7287,0,0,0,0,0,0,5.6424,5.645,5.6658,5.6558,5.6583,5.6599,5.666,5.666,5.6696,5.6722,5.6724,5.6682,5.6753,5.6772,5.6908,5.6995,5.6829,5.6838,5.7266,5.7275,5.7284,5.7405,0,0,0,0,0,0,5.6416,5.6448,5.6514,5.6561,5.6589,5.6777,5.6666,5.6666,5.6714,5.6703,5.6756,5.6759,5.675,5.6893,5.6918,5.7006,5.6846,5.7258,5.727,5.7281,5.7393,5.7417,5.7438,0,0,0,0,0,5.6406,5.6544,5.6518,5.6544,5.6671,5.6782,5.6798,5.6785,5.6721,5.6787,5.6804,5.6758,5.6982,5.6908,5.6934,5.7027,5.7252,5.7266,5.728,5.7383,5.7413,5.7437,0,0,0,0,0,0,5.6506,5.6549,5.6521,5.6677,5.6727,5.6768,5.685,5.6817,5.6885,5.6872,5.6853,5.6866,5.7008,5.7031,5.6948,5.7197,5.7107,5.7127,5.7176,5.7205,5.7226,5.7217,5.6854,0,0,0,0,0,5.6547,5.6633,5.6666,5.6801,5.6827,5.6835,5.6883,5.6869,5.6919,5.694,5.6966,5.7017,5.7099,5.7153,5.723,5.7397,5.7407,5.7474,5.7496,5.7514,5.7531,5.7621,5.7651,5.7332,5.7332,5.7332,0,0,5.6631,5.6665,5.6721,5.6822,5.6859,5.6949,5.6853,5.6952,5.7019,5.6955,5.7083,5.7105,5.7161,5.7313,5.7381,5.7336,5.7622,5.7532,5.7546,5.7553,5.7638,5.7668,5.7695,5.7342,5.734,5.7339,0,0,5.683,5.6865,5.698,5.702,5.7076,5.7081,5.7109,5.7156,5.7167,5.7297,5.725,5.733,5.7471,5.7513,5.7553,5.777,5.773,5.7795,5.7911,5.7999,5.8024,5.8046,5.8123,5.8151,5.7813,5.7813,5.7813,0,5.6927,5.7061,5.7044,5.7148,5.7194,5.714,5.7257,5.7296,5.7376,5.7409,5.7358,5.7535,5.7569,5.7729,5.7782,5.7817,5.7848,5.7788,5.8022,5.8044,5.8064,5.8137,5.8166,5.782,5.782,5.7819,5.7818,0,5.7177,5.7271,5.7358,5.7436,5.7492,5.7602,5.7603,5.7661,5.7643,5.7653,5.7786,5.7825,5.7908,5.7946,5.7929,5.8105,5.8075,5.8024,5.7932,5.8102,5.817,5.8198,5.7831,5.7828,5.7826,5.7824,0,0,5.744,5.7509,5.7541,5.7576,5.7636,5.7708,5.7816,5.7898,5.7949,5.8006,5.8096,5.8218,5.817,5.8216,5.8203,5.8281,5.8449,5.8219,5.822,5.826,5.8645,5.8682,5.8715,5.8424,5.8429,5.8433,5.864,0,5.7642,5.7829,5.7818,5.7994,5.8081,5.8032,5.8126,5.8173,5.8186,5.8261,5.8275,5.8362,5.8294,5.8321,5.8395,5.8413,5.8526,5.8398,5.8507,5.8511,5.8492,5.875,5.879,5.8983,5.8667,5.8671,5.8674,0,5.7901,5.7967,5.8152,5.8199,5.8235,5.8319,5.8394,5.8467,5.8519,5.8523,5.8575,5.855,5.8659,5.8567,5.8717,5.8631,5.8675,5.8691,5.8698,5.8706,5.8602,5.8765,5.9045,5.9073,5.8716,5.8713,5.871,0,5.8073,5.8209,5.8337,5.8368,5.8427,5.8487,5.8515,5.8562,5.8612,5.8678,5.871,5.8788,5.883,5.8891,5.8888,5.8821,5.9041,5.8948,5.9047,5.9047,5.9094,5.9091,5.9383,5.9125,5.9125,5.9124,5.9124,0,5.8298,5.8413,5.8415,5.8493,5.8621,5.8608,5.8735,5.8755,5.8798,5.888,5.8843,5.8921,5.8913,5.8992,5.899,5.9115,5.9135,5.9141,5.9139,5.9143,5.9142,5.917,5.9156,5.9132,5.913,5.9129,5.9127,0,5.8512,5.8518,5.8654,5.8698,5.8712,5.8804,5.8842,5.8917,5.8927,5.9031,5.9055,5.9071,5.9162,5.9165,5.927,5.9269,5.9421,5.9404,5.9403,5.9399,5.9497,5.9487,5.9817,5.9859,5.9575,5.9578,5.958,0,5.8654,5.8741,5.8795,5.8847,5.8878,5.8963,5.9014,5.9006,5.9061,5.9128,5.9195,5.9282,5.9351,5.9498,5.952,5.9599,5.9584,5.9694,5.9595,5.9597,5.9584,5.9578,5.9587,5.9713,5.9716,5.9718,5.972,0,5.8906,5.8905,5.8979,5.9057,5.9118,5.9179,5.9234,5.9279,5.9277,5.9341,5.9433,5.9487,5.9594,5.9681,5.9758,5.9786,5.9754,5.9752,5.9778,5.9783,5.9778,5.9781,5.9453,5.9744,5.9741,5.974,5.9738,5.9737,5.9087,5.9162,5.9212,5.9297,5.9338,5.9391,5.9464,5.9483,5.956,5.9646,5.9636,5.9739,5.979,5.9891,5.9926,6.0006,5.9968,6.0008,6.0017,6.0027,6.0036,5.9767,6.0021,6.002,6.0019,6.0019,6.0018,0,5.9336,5.9366,5.9444,5.9523,5.959,5.9554,5.9614,5.9672,5.9763,5.9814,5.9883,5.9989,6.0073,6.0102,6.0184,6.0243,6.023,6.0265,6.0259,6.0266,6.0066,6.0034,6.0274,6.0274,6.0274,6.0274,6.0274,6.0273,5.9473,5.9598,5.9603,5.9749,5.9778,5.9877,5.9915,5.9964,6.0004,6.0124,6.0194,6.0212,6.0254,6.0339,6.0415,6.0421,6.0453,6.0494,6.0494,6.0306,6.028,6.0256,6.0225,6.0501,6.0501,6.0686,6.0688,6.069]},{"header":{"parameterUnit":"m.s-1","parameterCategory":1,"la1":30.2991,"la2":30.254,"lo1":-89.0895,"lo2":-89.0444,"dy":0.0017,"dx":0.0017,"nx":28,"ny":28,"refTime":"2023-06-18T21:00:00:Z","depth":0,"parameterNumber":3,"parameterNumberName":"V-component_of_WINDS"},"data":[0,0,0,0,0,0,0,0,0,0,0,0,0,0,0,0,0,0,0,0,0,0,0,0,0,0,0,0,0,0,0,0,0,0,0,0,0,0,0,0,0,0,0,0,0,0,0,0,0,0,0,0,0,0,0,0,0,0,0.8401,0.8401,0,0.8415,0.8415,0.8415,0.8376,0.8375,0.8374,0.8373,0.839,0.8391,0.8393,0,0,0,0,0,0,0,0,0,0,0,0,0,0.8344,0.8345,0.8401,0.8401,0.8401,0.8414,0.8415,0.8415,0.8377,0.8375,0.8374,0.8372,0.8389,0.8391,0.8393,0,0,0,0,0,0,0,0,0,0,0,0,0,0.8364,0.8345,0.8401,0.8384,0.8382,0.8414,0.8415,0.8415,0.8377,0.8375,0.8373,0.8372,0.8389,0.8391,0.8393,0.8443,0,0,0.84,0.8401,0,0,0,0,0,0,0,0,0.8363,0.8366,0.8386,0.8385,0.8383,0.8392,0.8401,0.8425,0.8377,0.8379,0.8373,0.8371,0.8392,0.8394,0.8401,0.8444,0.8445,0.84,0.8402,0.8403,0.8404,0,0,0,0,0,0,0,0.8362,0.8365,0.8406,0.8386,0.8385,0.8376,0.8377,0.8405,0.8396,0.8379,0.8376,0.8378,0.8391,0.8398,0.8401,0.8445,0.84,0.8402,0.8404,0.8405,0.853,0.8532,0,0,0,0,0,0,0.8362,0.8365,0.8406,0.8407,0.8368,0.8378,0.8379,0.8391,0.8395,0.8394,0.838,0.8376,0.8395,0.8398,0.8401,0.846,0.8403,0.8405,0.8406,0.8528,0.853,0.8532,0,0,0,0,0,0,0.8361,0.8366,0.8405,0.8385,0.8389,0.8381,0.8395,0.8392,0.84,0.8396,0.8394,0.8389,0.8394,0.8398,0.8433,0.846,0.8406,0.8408,0.8526,0.8529,0.8531,0.8578,0,0,0,0,0,0,0.836,0.8366,0.8385,0.8386,0.839,0.8437,0.8396,0.8394,0.8403,0.8399,0.8404,0.8403,0.8393,0.8429,0.8435,0.8462,0.841,0.8523,0.8527,0.853,0.8574,0.8582,0.8589,0,0,0,0,0,0.8358,0.8398,0.8386,0.8391,0.8414,0.8438,0.8441,0.8428,0.8406,0.8425,0.8422,0.8403,0.8456,0.8433,0.8439,0.8468,0.8521,0.8526,0.853,0.8571,0.8581,0.8589,0,0,0,0,0,0,0.8402,0.8398,0.8384,0.8426,0.8433,0.8432,0.8455,0.8439,0.8453,0.8448,0.8432,0.8433,0.8471,0.8473,0.8448,0.8516,0.8485,0.8491,0.8514,0.8523,0.853,0.853,0.8412,0,0,0,0,0,0.8416,0.8436,0.8432,0.8469,0.8473,0.8464,0.8474,0.8463,0.8469,0.8472,0.8472,0.848,0.8498,0.851,0.8527,0.8574,0.8574,0.8596,0.8603,0.861,0.8615,0.8639,0.8649,0.8546,0.8546,0.8546,0,0,0.8447,0.8447,0.8461,0.8478,0.8482,0.8503,0.8466,0.849,0.8506,0.8476,0.8509,0.8509,0.8516,0.8557,0.8575,0.856,0.8643,0.8615,0.862,0.8622,0.8645,0.8655,0.8663,0.8549,0.8549,0.8548,0,0,0.8514,0.8516,0.8547,0.8551,0.8556,0.8549,0.8557,0.8558,0.8557,0.8589,0.8566,0.8585,0.8617,0.8623,0.863,0.8697,0.868,0.8703,0.8743,0.8767,0.8775,0.8782,0.8806,0.8815,0.8708,0.8709,0.8709,0,0.8551,0.8581,0.8565,0.859,0.8598,0.8571,0.8602,0.8607,0.8619,0.8625,0.8607,0.8646,0.8649,0.869,0.8707,0.8713,0.8722,0.8703,0.8775,0.8782,0.8788,0.8811,0.882,0.8711,0.8711,0.8711,0.8711,0,0.8627,0.8649,0.8673,0.8683,0.8694,0.8723,0.8711,0.8724,0.8712,0.8707,0.874,0.8742,0.8758,0.8767,0.8756,0.8807,0.8797,0.8777,0.8746,0.8801,0.8822,0.8831,0.8715,0.8714,0.8714,0.8713,0,0,0.8723,0.8723,0.8732,0.8736,0.874,0.8756,0.8783,0.8798,0.881,0.8818,0.884,0.8867,0.8848,0.8856,0.8845,0.8866,0.8919,0.8844,0.8844,0.8858,0.8975,0.8991,0.9001,0.8907,0.8909,0.891,0.8975,0,0.8789,0.8834,0.882,0.8866,0.8885,0.8859,0.8882,0.8887,0.8883,0.8899,0.8895,0.8914,0.8888,0.8893,0.8912,0.8909,0.8943,0.8904,0.8929,0.893,0.8928,0.9012,0.9029,0.909,0.8983,0.8984,0.8985,0,0.8872,0.8882,0.893,0.8929,0.8937,0.8958,0.897,0.8986,0.8991,0.8986,0.8995,0.8979,0.9006,0.8973,0.901,0.8984,0.8993,0.8993,0.8995,0.8997,0.8961,0.9017,0.9109,0.9118,0.8998,0.8997,0.8996,0,0.8937,0.8963,0.8995,0.8999,0.8999,0.9015,0.9016,0.9018,0.9028,0.9039,0.9045,0.9058,0.9066,0.9078,0.9066,0.9044,0.9104,0.9071,0.9102,0.9102,0.9117,0.9116,0.9212,0.9122,0.9122,0.9122,0.9121,0,0.9012,0.9043,0.9024,0.9044,0.9077,0.906,0.9093,0.9091,0.9094,0.9113,0.9091,0.9109,0.9093,0.911,0.9101,0.9132,0.9136,0.9133,0.9131,0.9136,0.9136,0.9142,0.9138,0.9124,0.9123,0.9123,0.9123,0,0.9091,0.908,0.9113,0.911,0.911,0.9134,0.9132,0.915,0.9143,0.9168,0.9173,0.9163,0.9182,0.9171,0.9191,0.9185,0.9226,0.9217,0.9224,0.9222,0.9253,0.9251,0.9356,0.9369,0.9271,0.9272,0.9273,0,0.914,0.9163,0.9161,0.9172,0.9174,0.9192,0.9201,0.9185,0.9195,0.9202,0.9219,0.9236,0.9248,0.928,0.9275,0.9289,0.9281,0.9317,0.9284,0.9287,0.9282,0.9281,0.9283,0.9325,0.9326,0.9327,0.9327,0,0.9228,0.9221,0.9235,0.9246,0.9258,0.9267,0.9274,0.9284,0.9267,0.928,0.9299,0.9308,0.9327,0.9344,0.9356,0.9358,0.934,0.9338,0.9346,0.9351,0.9354,0.9353,0.9243,0.9336,0.9335,0.9334,0.9334,0.9333,0.9293,0.9312,0.9314,0.933,0.9333,0.934,0.9356,0.9352,0.9366,0.938,0.937,0.9391,0.9395,0.9409,0.9413,0.943,0.9415,0.9427,0.943,0.9433,0.9437,0.9351,0.9432,0.9432,0.9431,0.9431,0.9431,0,0.938,0.938,0.9394,0.9404,0.9417,0.9398,0.9404,0.9416,0.9435,0.944,0.9452,0.9473,0.9489,0.9485,0.9499,0.9513,0.9505,0.9518,0.9517,0.9517,0.9449,0.9441,0.9523,0.9523,0.9523,0.9523,0.9523,0.9523,0.9427,0.9457,0.945,0.9482,0.9481,0.9502,0.9507,0.9513,0.9517,0.9541,0.9553,0.955,0.9551,0.9565,0.9579,0.9577,0.9583,0.9599,0.9594,0.9531,0.9522,0.9513,0.9506,0.96,0.96,0.9661,0.9661,0.9662]}]]